TimeMST,TemperatureF,Dew PointF,Humidity,Sea Level PressureIn,VisibilityMPH,Wind Direction,Wind SpeedMPH,Gust SpeedMPH,PrecipitationIn,Events,Conditions,WindDirDegrees,DateUTC
12:16 AM,28.4,12.2,51,29.88,1.5,WSW,32.2,50.6,N/A,Snow,Light Snow,240,2014-01-12 07:16:00
12:36 AM,28.4,12.2,51,29.87,0.5,WSW,32.2,49.5,N/A,Snow,Light Snow,250,2014-01-12 07:36:00
12:56 AM,28.4,12.2,51,29.85,0.8,WSW,35.7,51.8,N/A,Snow,Light Snow,250,2014-01-12 07:56:00
1:16 AM,28.4,14.0,55,29.83,0.5,WSW,39.1,52.9,N/A,Snow,Light Snow,250,2014-01-12 08:16:00
1:36 AM,26.6,14.0,59,29.84,1.2,WSW,23.0,46.0,N/A,Snow,Light Snow,250,2014-01-12 08:36:00
1:56 AM,26.6,14.0,59,29.85,1.2,WSW,21.9,42.6,N/A,Snow,Light Snow,240,2014-01-12 08:56:00
2:16 AM,26.6,15.8,64,29.84,0.8,SSW,18.4,32.2,N/A,Snow,Light Snow,210,2014-01-12 09:16:00
2:36 AM,26.6,14.0,59,29.83,1.0,WSW,29.9,38.0,N/A,Snow,Light Snow,240,2014-01-12 09:36:00
2:56 AM,26.6,17.6,69,29.82,0.5,WSW,24.2,38.0,N/A,Snow,Light Snow,250,2014-01-12 09:56:00
3:16 AM,24.8,17.6,74,29.80,0.2,SW,21.9,40.3,N/A,Snow,Snow,230,2014-01-12 10:16:00
3:36 AM,24.8,17.6,74,29.80,0.5,SW,21.9,36.8,N/A,Snow,Light Snow,230,2014-01-12 10:36:00
3:56 AM,24.8,17.6,74,29.79,0.8,WSW,25.3,35.7,N/A,Snow,Light Snow,240,2014-01-12 10:56:00
4:16 AM,24.8,17.6,74,29.77,0.8,WSW,26.5,38.0,N/A,Snow,Light Snow,250,2014-01-12 11:16:00
4:36 AM,24.8,17.6,74,29.77,0.8,SW,17.3,36.8,N/A,Snow,Light Snow,230,2014-01-12 11:36:00
4:56 AM,24.8,15.8,69,29.76,0.2,WSW,24.2,38.0,N/A,Snow,Light Snow,240,2014-01-12 11:56:00
5:16 AM,24.8,17.6,74,29.74,0.5,SW,18.4,35.7,N/A,Snow,Light Snow,230,2014-01-12 12:16:00
5:36 AM,24.8,17.6,74,29.72,0.2,WSW,27.6,42.6,N/A,Snow,Snow,240,2014-01-12 12:36:00
5:56 AM,24.8,15.8,69,29.72,0.2,WSW,25.3,41.4,N/A,Snow,Light Snow,240,2014-01-12 12:56:00
6:16 AM,23.0,14.0,68,29.71,0.2,WSW,25.3,43.7,N/A,Snow,Light Snow,240,2014-01-12 13:16:00
6:36 AM,23.0,14.0,68,29.71,0.2,SW,21.9,47.2,N/A,Snow,Snow,230,2014-01-12 13:36:00
6:56 AM,23.0,12.2,63,29.71,0.5,WSW,21.9,40.3,N/A,Snow,Light Snow,240,2014-01-12 13:56:00
7:16 AM,23.0,12.2,63,29.70,0.5,SW,23.0,44.9,N/A,Snow,Light Snow,230,2014-01-12 14:16:00
7:36 AM,23.0,14.0,68,29.69,0.2,WSW,21.9,38.0,N/A,Snow,Light Snow,240,2014-01-12 14:36:00
7:56 AM,23.0,15.8,74,29.67,0.2,WSW,29.9,40.3,N/A,Snow,Heavy Snow,240,2014-01-12 14:56:00
8:16 AM,23.0,14.0,68,29.67,0.2,WSW,32.2,46.0,N/A,Snow,Heavy Snow,240,2014-01-12 15:16:00
8:36 AM,23.0,14.0,68,29.69,0.2,SW,19.6,43.7,N/A,Snow,Light Snow,220,2014-01-12 15:36:00
8:56 AM,23.0,14.0,68,29.68,0.2,WSW,28.8,40.3,N/A,Snow,Snow,250,2014-01-12 15:56:00
9:16 AM,14.0,8.6,79,29.71,0.2,WNW,38.0,48.3,N/A,Snow,Heavy Snow,290,2014-01-12 16:16:00
9:36 AM,14.0,8.6,79,29.73,0.2,West,27.6,36.8,N/A,Snow,Heavy Snow,280,2014-01-12 16:36:00
9:56 AM,14.0,8.6,79,29.74,-9999.0,West,26.5,34.5,N/A,,Overcast,270,2014-01-12 16:56:00
10:16 AM,14.0,8.6,79,29.75,-9999.0,West,18.4,-,N/A,,Overcast,280,2014-01-12 17:16:00
10:36 AM,14.0,8.6,79,29.74,-9999.0,North,-9999.0,-,N/A,,Overcast,0,2014-01-12 17:36:00
10:56 AM,14.0,8.6,79,29.74,-9999.0,West,11.5,19.6,N/A,,Overcast,280,2014-01-12 17:56:00
11:16 AM,14.0,8.6,79,29.72,-9999.0,North,-9999.0,-,N/A,,Overcast,0,2014-01-12 18:16:00
11:36 AM,14.0,8.6,79,29.71,-9999.0,WNW,17.3,39.1,N/A,,Overcast,290,2014-01-12 18:36:00
11:56 AM,14.0,6.8,73,29.70,-9999.0,WNW,31.1,42.6,N/A,,Overcast,290,2014-01-12 18:56:00
12:16 PM,10.4,3.2,73,29.69,-9999.0,WNW,36.8,50.6,N/A,,Overcast,290,2014-01-12 19:16:00
12:36 PM,10.4,3.2,73,29.70,-9999.0,WNW,31.1,47.2,N/A,,Overcast,290,2014-01-12 19:36:00
12:56 PM,10.4,3.2,73,29.69,-9999.0,WNW,35.7,48.3,N/A,,Overcast,290,2014-01-12 19:56:00
1:16 PM,8.6,1.4,73,29.69,-9999.0,WNW,31.1,44.9,N/A,,Overcast,290,2014-01-12 20:16:00
1:36 PM,8.6,1.4,73,29.71,-9999.0,North,-9999.0,-,N/A,,Overcast,0,2014-01-12 20:36:00
1:56 PM,8.6,3.2,79,29.71,-9999.0,North,-9999.0,-,N/A,,Overcast,0,2014-01-12 20:56:00
2:16 PM,8.6,1.4,73,29.72,-9999.0,WNW,26.5,36.8,N/A,,Overcast,290,2014-01-12 21:16:00
2:36 PM,8.6,1.4,73,29.70,-9999.0,North,-9999.0,-,N/A,,Overcast,0,2014-01-12 21:36:00
2:56 PM,8.6,1.4,73,29.74,-9999.0,West,35.7,-,N/A,,Overcast,280,2014-01-12 21:56:00
3:16 PM,8.6,1.4,73,29.75,0.2,West,35.7,52.9,N/A,Snow,Heavy Snow,280,2014-01-12 22:16:00
3:36 PM,8.6,1.4,73,29.77,0.2,West,34.5,51.8,N/A,Snow,Snow,270,2014-01-12 22:36:00
3:56 PM,8.6,1.4,73,29.74,0.2,West,39.1,49.5,N/A,Snow,Snow,270,2014-01-12 22:56:00
4:16 PM,8.6,1.4,73,29.69,0.2,North,-9999.0,-,N/A,Snow,Heavy Snow,0,2014-01-12 23:16:00
4:36 PM,8.6,1.4,73,29.75,0.2,West,42.6,-,N/A,Snow,Heavy Snow,280,2014-01-12 23:36:00
4:56 PM,8.6,-0.4,67,29.78,0.2,WNW,36.8,51.8,N/A,Snow,Snow,290,2014-01-12 23:56:00
5:16 PM,8.6,-0.4,67,29.80,0.5,North,-9999.0,-,N/A,Snow,Snow,0,2014-01-13 00:16:00
5:36 PM,6.8,-0.4,72,29.80,0.5,WNW,31.1,-,N/A,Snow,Light Snow,290,2014-01-13 00:36:00
5:56 PM,8.6,1.4,73,29.82,0.2,North,-9999.0,-,N/A,Snow,Heavy Snow,0,2014-01-13 00:56:00
6:16 PM,8.6,1.4,73,29.83,0.2,West,28.8,40.3,N/A,Snow,Heavy Snow,280,2014-01-13 01:16:00
6:36 PM,8.6,1.4,73,29.84,-9999.0,West,16.1,21.9,N/A,,Overcast,280,2014-01-13 01:36:00
6:56 PM,8.6,1.4,73,29.84,-9999.0,WNW,23.0,46.0,N/A,,Overcast,290,2014-01-13 01:56:00
7:16 PM,8.6,1.4,73,29.84,-9999.0,West,32.2,44.9,N/A,,Overcast,280,2014-01-13 02:16:00
7:36 PM,8.6,1.4,73,29.87,-9999.0,WNW,21.9,36.8,N/A,,Overcast,290,2014-01-13 02:36:00
7:56 PM,8.6,1.4,73,29.88,-9999.0,WNW,29.9,42.6,N/A,,Overcast,290,2014-01-13 02:56:00
8:16 PM,6.8,-0.4,72,29.87,-9999.0,West,31.1,48.3,N/A,,Overcast,280,2014-01-13 03:16:00
8:36 PM,6.8,-0.4,72,29.89,-9999.0,West,27.6,47.2,N/A,,Overcast,280,2014-01-13 03:36:00
8:56 PM,6.8,-0.4,72,29.88,-9999.0,West,32.2,43.7,N/A,,Overcast,280,2014-01-13 03:56:00
9:16 PM,6.8,-0.4,72,29.89,-9999.0,North,-9999.0,-,N/A,,Overcast,0,2014-01-13 04:16:00
9:36 PM,6.8,-0.4,72,29.88,-9999.0,West,34.5,43.7,N/A,,Overcast,280,2014-01-13 04:36:00
9:56 PM,6.8,-0.4,72,29.90,-9999.0,West,33.4,50.6,N/A,,Overcast,280,2014-01-13 04:56:00
10:16 PM,6.8,-0.4,72,29.90,-9999.0,WNW,27.6,44.9,N/A,,Overcast,290,2014-01-13 05:16:00
10:36 PM,6.8,-0.4,72,29.92,-9999.0,North,-9999.0,-,N/A,,Overcast,0,2014-01-13 05:36:00
10:56 PM,6.8,-0.4,72,29.92,-9999.0,North,-9999.0,-,N/A,,Overcast,0,2014-01-13 05:56:00
11:16 PM,6.8,-0.4,72,29.92,-9999.0,West,25.3,35.7,N/A,,Overcast,280,2014-01-13 06:16:00
11:36 PM,6.8,-0.4,72,29.92,-9999.0,WNW,25.3,49.5,N/A,,Overcast,290,2014-01-13 06:36:00
11:56 PM,6.8,-0.4,72,29.92,-9999.0,West,26.5,-,N/A,,Overcast,280,2014-01-13 06:56:00